Regional Weather Roundup
Issued by NWS

Home | Current Version | Previous Version | Graphics & Text | Print | Product List | Glossary On
Versions: 1 2 3 4 5 6 7 8 9 10 11 12 13 14 15 16 17 18 19 20 21 22 23 24 25 26 27 28 29 30 31 32 33 34 35 36 37 38 39 40 41 42 43 44 45 46 47 48 49 50
000
ASUS43 KBIS 250059
RWRND

NORTH DAKOTA REGIONAL WEATHER ROUNDUP
NATIONAL WEATHER SERVICE BISMARCK ND
800 PM CDT THU APR 24 2014

NOTE: "FAIR" INDICATES FEW OR NO CLOUDS BELOW 12,000 FEET WITH NO
SIGNIFICANT WEATHER AND/OR OBSTRUCTIONS TO VISIBILITY.


NDZ001>003-009>011-017-250200-
NORTHWEST NORTH DAKOTA

CITY           SKY/WX    TMP DP  RH WIND       PRES   REMARKS
WILLISTON      PTCLDY    56  25  30 NW8       29.70S
MINOT          CLOUDY    56  34  43 N7        29.69S
MINOT AFB      MOCLDY    57  32  38 N12       29.68S
$$

NDZ018>021-031>035-040>046-250200-
SOUTHWEST NORTH DAKOTA

CITY           SKY/WX    TMP DP  RH WIND       PRES   REMARKS
BISMARCK       CLEAR     58  26  29 N15G22    29.71R
GARRISON         N/A     55  27  34 NW10      29.70S
HETTINGER ARPT MOCLDY    56  16  20 NW13      29.74R
$$

NDZ004>008-012>016-024-026-027-054-250200-
NORTHEAST NORTH DAKOTA

CITY           SKY/WX    TMP DP  RH WIND       PRES   REMARKS
GRAND FORKS    CLOUDY    43  40  89 E5        29.71S
DEVILS LAKE    CLOUDY    46  39  76 E10       29.70R
$$

NDZ022-023-025-028>030-036>039-047>053-250200-
SOUTHEAST NORTH DAKOTA

CITY           SKY/WX    TMP DP  RH WIND       PRES   REMARKS
FARGO          MOCLDY    48  44  86 SE7       29.66F
$$




USA.gov is the U.S. government's official web portal to all federal, state and local government web resources and services.